Alexandria, MN

3:52 PM CST on December 06, 2019 (GMT -0600)
Chandler

Weather History for KAXN - October, 2019

Change the Weather History Date:

Wednesday, October 30, 2019

  Actual Average Record
Temperature  
Mean Temperature 24 °F -  
Max Temperature 28 °F 49 °F 76 °F (1950)
Min Temperature 21 °F 31 °F 14 °F (1991)
Degree Days  
Heating Degree Days 40    
Moisture  
Dew Point 14 °F    
Average Humidity 64    
Maximum Humidity 74    
Minimum Humidity 56    
Precipitation  
Precipitation 0.00 in - - ()
Sea Level Pressure  
Sea Level Pressure 30.33 in    
Wind  
Wind Speed 9 mph ()    
Max Wind Speed 15 mph    
Max Gust Speed 21 mph    
Visibility 10.0 miles    
Events      
Averages and records for this station are not official NWS values.
T = Trace of Precipitation, MM = Missing Value Source: Averaged Metar Reports

Daily Weather History Graph

Daily Weather History Graph

Search for Another Location

Airport or City:

Astronomy

Oct. 30, 2019 Rise Set
Actual Time 7:58 AM CDT 6:11 PM CDT
Civil Twilight 7:27 AM CDT 6:41 PM CDT
Nautical Twilight 6:52 AM CDT 7:17 PM CDT
Astronomical Twilight 6:18 AM CDT 7:51 PM CDT
Moon 10:49 AM CDT (10/30) 8:11 PM CDT (10/30)
Length of Visible Light 11h 14m
Length of Day
10h 12m
Waxing Crescent, 9% of the Moon is Illuminated
Oct 30
Waxing Crescent
Nov 4
First Quarter
Nov 12
Full
Nov 19
Last Quarter
Nov 26
New

Hourly Weather History & Observations

Time (CDT) Temp. Windchill Dew Point Humidity Pressure Visibility Wind Dir Wind Speed Gust Speed Precip Events Conditions
12:53 AM 21.0 °F 10.6 °F 14.0 °F 74% 30.38 in 10.0 mi West 9.2 mph - N/A   Clear
1:53 AM 21.0 °F 10.6 °F 14.0 °F 74% 30.38 in 10.0 mi WSW 9.2 mph - N/A   Mostly Cloudy
2:53 AM 21.9 °F 11.0 °F 14.0 °F 72% 30.37 in 10.0 mi West 10.4 mph - N/A   Overcast
3:53 AM 21.9 °F 13.4 °F 14.0 °F 72% 30.37 in 10.0 mi West 6.9 mph - N/A   Mostly Cloudy
4:53 AM 23.0 °F 13.9 °F 15.1 °F 72% 30.36 in 10.0 mi WSW 8.1 mph - N/A   Overcast
5:53 AM 23.0 °F 12.4 °F 14.0 °F 68% 30.36 in 10.0 mi West 10.4 mph - N/A   Mostly Cloudy
6:53 AM 24.1 °F 14.4 °F 14.0 °F 65% 30.37 in 10.0 mi WSW 9.2 mph - N/A   Overcast
7:53 AM 23.0 °F 13.9 °F 12.9 °F 65% 30.37 in 10.0 mi WSW 8.1 mph - N/A   Overcast
8:53 AM 24.1 °F 15.2 °F 14.0 °F 65% 30.37 in 10.0 mi West 8.1 mph - N/A   Overcast
9:53 AM 25.0 °F 16.3 °F 16.0 °F 69% 30.37 in 10.0 mi West 8.1 mph - N/A   Scattered Clouds
10:50 AM 26.6 °F 15.2 °F 15.8 °F 64% 30.30 in 10.0 mi West 13.8 mph - N/A   Mostly Cloudy
10:53 AM 27.0 °F 16.7 °F 16.0 °F 63% 30.37 in 10.0 mi West 11.5 mph - N/A   Mostly Cloudy
11:53 AM 28.0 °F 18.1 °F 15.1 °F 58% 30.37 in 10.0 mi WNW 11.5 mph - N/A   Overcast
12:38 PM 27.0 °F 16.1 °F 12.9 °F 56% 30.29 in 10.0 mi West 12.7 mph - N/A   Overcast
12:53 PM 28.0 °F 20.0 °F 14.0 °F 56% 30.36 in 10.0 mi West 8.1 mph - N/A   Overcast
1:53 PM 27.0 °F 16.1 °F 12.9 °F 56% 30.34 in 10.0 mi West 12.7 mph - N/A   Overcast
2:53 PM 27.0 °F 15.6 °F 12.9 °F 56% 30.32 in 10.0 mi WSW 13.8 mph - N/A   Overcast
3:53 PM 27.0 °F 18.0 °F 14.0 °F 58% 30.31 in 10.0 mi West 9.2 mph - N/A   Overcast
4:53 PM 27.0 °F 15.2 °F 14.0 °F 58% 30.31 in 10.0 mi West 15.0 mph 19.6 mph N/A   Overcast
5:53 PM 26.1 °F 16.2 °F 16.0 °F 66% 30.30 in 10.0 mi NW 10.4 mph - N/A   Overcast
6:53 PM 26.1 °F 18.4 °F 16.0 °F 66% 30.29 in 10.0 mi NW 6.9 mph - N/A   Overcast
7:35 PM 26.1 °F 16.2 °F 14.0 °F 60% 30.21 in 10.0 mi NW 10.4 mph 20.7 mph N/A   Overcast
8:53 PM 26.1 °F 15.0 °F 14.0 °F 60% 30.27 in 10.0 mi NW 12.7 mph - N/A   Overcast
9:53 PM 25.0 °F 14.8 °F 14.0 °F 63% 30.27 in 10.0 mi NNW 10.4 mph - N/A   Overcast
10:53 PM 24.1 °F 13.7 °F 14.0 °F 65% 30.26 in 10.0 mi NNW 10.4 mph - N/A   Overcast
11:53 PM 24.1 °F 17.0 °F 14.0 °F 65% 30.25 in 10.0 mi NNW 5.8 mph - N/A   Overcast